Regional Weather Roundup
Issued by NWS

Current Version | Previous Version | Text Only | Print | Product List | Glossary On
Versions: 1 2 3 4 5 6 7 8 9 10 11 12 13 14 15 16 17 18 19 20 21 22 23 24 25 26 27 28 29 30 31 32 33 34 35 36 37 38 39 40 41 42 43 44 45 46 47 48 49 50
000
ASUS42 KTBW 220810
RWRFL
FLORIDA REGIONAL WEATHER ROUNDUP
NATIONAL WEATHER SERVICE TAMPA BAY RUSKIN FL
400 AM EDT MON SEP 22 2014

NOTE: "FAIR" INDICATES FEW OR NO CLOUDS BELOW 12,000 FEET WITH NO
SIGNIFICANT WEATHER AND/OR OBSTRUCTIONS TO VISIBILITY.


FLZ001>010-012>015-112-114-115-220900-
PANHANDLE FLORIDA

CITY           SKY/WX    TMP DP  RH WIND       PRES   REMARKS
PENSACOLA      CLEAR     68  67  96 N3        29.98F
PENSACOLA NAS  CLEAR     65  65 100 CALM      29.98F FOG
MILTON NAS     CLEAR     65  63  93 NW3       30.00S
CRESTVIEW      CLEAR     64  63  96 CALM      30.01S
DUKE FIELD     FAIR      64  64  99 CALM      29.99F
VALPARAISO     CLEAR     67  65  91 CALM      29.99S
MARY ESTHER    CLEAR     67  62  86 NW2       29.98S
TRI COUNTY     FAIR      65  64  97 MISG      30.00F
PANAMA CITY    FAIR      67  63  87 NW5       29.97F
TYNDALL AFB    FOG       67  67 100 CALM      29.97F VSB 1/2
APALACHICOLA   CLEAR     68  64  87 CALM      29.97F

STATION/POSITION SKY/WX   TEMP    WIND        PRES    WAVE   SWELL
                          AIR SEA DIR/SP/G            HT/PER HT/PER
                          (F)     (DEG/KT/KT) (MB)    (FT/S) (FT/S)
30.1N   87.6W              81 85  130/  6/  8 1015.3F   2/ 5   2/ 5
29.2N   88.2W              82 84  100/ 10/ 12 1015.1F   2/ 5   2/ 5
28.8N   86.0W              81 84   90/ 10/ 12 1014.4F   2/ 4   2/ 6
PANAMA CITY BEAC           78 85   50/  2/  5 1014.9S
CAPE SAN BLAS    NOT AVBL
TOWER C                    80     130/  3/  4 1014.7F
28.5N   84.5W              81 84  130/  6/  8 1014.7F   1/ 6   2/ 6

$$
FLZ011-016>038-118-127-128-134-139-239-220900-
NORTH FLORIDA

CITY           SKY/WX    TMP DP  RH WIND       PRES   REMARKS
MARIANNA       CLEAR     67  67 100 CALM      29.99S
TALLAHASSEE    CLEAR     63  61  93 CALM      29.98F
PERRY            N/A     64  64 100 E5        29.98F FOG
CROSS CITY       N/A     69  66  90 CALM      29.98F
LAKE CITY      FAIR      63  63 100 CALM      29.99F
GAINESVILLE    PTCLDY    67  65  93 CALM      29.99F
MAYPORT NAS    PTCLDY    69  65  86 SW3       29.98F
JACKSONVILLE   PTCLDY    64  64 100 CALM      29.98F
JAX NAS        PTCLDY    72  66  81 SW5       29.99F
JAX CRAIG      CLEAR     67  64  90 CALM      29.98F
JAX CECIL      CLEAR     63  63 100 CALM      29.99S
ST AUGUSTINE   PTCLDY    70  66  87 SW3       29.99F

STATION/POSITION SKY/WX   TEMP    WIND        PRES    WAVE   SWELL
                          AIR SEA DIR/SP/G            HT/PER HT/PER
                          (F)     (DEG/KT/KT) (MB)    (FT/S) (FT/S)
SHELL POINT                72     350/  2/  3   N/A
KEATON BEACH               70      70/  4/  5 1015.2F
CEDAR KEY                  76      70/  5/  7 1015.7F
FERNANDINA                 72 81  240/  5/  7 1014.7S
30.7N   81.3W                 83                N/A     3/ 9
MAYPORT                    72 82  220/  4/  6   N/A
31.4N   80.9W              81 82  240/ 14/ 17 1014.7F   3/ 4   2/10
ST AUGUSTINE               73     220/  7/  8 1015.9F

$$
FLZ040-043>046-052-053-057-058-063-144-220900-
INTERIOR CENTRAL FLORIDA

CITY           SKY/WX    TMP DP  RH WIND       PRES   REMARKS
OCALA          PTCLDY    73  70  88 CALM      29.99S
THE VILLAGES     N/A     75  73  94 CALM      29.89S
LEESBURG       PTCLDY    77  73  87 SE5       29.99F
SANFORD        MOCLDY    76  72  87 S5        29.99F
ORLANDO EXEC   MOCLDY    76  73  91 CALM      29.98F
ORLANDO INTL   MOCLDY    73  73 100 CALM      29.99F
WINTER HAVEN   PTCLDY    74  73  97 CALM      30.01R
LAKELAND       CLEAR    N/A N/A N/A CALM      29.99S
BARTOW         FAIR      72 N/A N/A CALM      30.00S
OKEECHOBEE       N/A     70  70 100 MISG      30.00R

$$
FLZ041-047-054-059-064-141-147-220900-
EAST CENTRAL FLORIDA

CITY           SKY/WX    TMP DP  RH WIND       PRES   REMARKS
DAYTONA BEACH  MOCLDY    72  71  97 CALM      29.99F
DELAND         PTSUNNY   72  70  94 CALM      30.00S
JFK SPACE CTR  MOCLDY    75  72  91 SW5       29.99S
CAPE CANAVERAL MOCLDY    74  72  92 SW3       29.98S
PATRICK AFB    MOCLDY    76  73  91 SW5       29.98F
MELBOURNE      MOCLDY    74  71  91 SW3       29.98F
VERO BEACH     MOCLDY    71  70  96 CALM      29.98F
FT PIERCE        N/A     71  69  93 CALM      29.99S FOG
STUART         PTCLDY    72  72 100 CALM      29.99F

STATION/POSITION SKY/WX   TEMP    WIND        PRES    WAVE   SWELL
                          AIR SEA DIR/SP/G            HT/PER HT/PER
                          (F)     (DEG/KT/KT) (MB)    (FT/S) (FT/S)
28.5N   80.2W              80 84  240/  8/ 10 1015.6F
28.9N   78.5W              81 84  230/  6/  8 1015.5F   5/11   5/11
TRIDENT PIER               76 83  230/  4/  5 1015.0F
28.4N   80.5W                 83                N/A     2/ 8
27.6N   80.2W                 82                N/A     2/10   2/11

$$
FLZ050-056-061-142-242-148-248-149-249-151-251-155-255-
160-260-220900-
WEST CENTRAL FLORIDA

CITY           SKY/WX    TMP DP  RH WIND       PRES   REMARKS
CRYSTAL RIVER  FAIR      73  72  94 CALM      29.97F
INVERNESS      CLOUDY    73  64  73 CALM      29.98F
BROOKSVILLE    PTCLDY    73  72  96 SE3       29.99F
ZEPHYRHILLS    FAIR      68  68 100 CALM      30.00S FOG
CLEARWATER     PTCLDY    77  75  93 CALM      29.97F
TAMPA INTL     MOCLDY    77  72  84 CALM      29.99S
TAMPA EXEC     CLEAR     75  72  88 CALM      29.99S
PLANT CITY     CLEAR     75 N/A N/A CALM      30.01F
MACDILL AFB    PTCLDY    74  74 100 NE3       29.98F
ST PETERSBURG  PTCLDY    78  74  87 E3        29.96F
SARASOTA       PTCLDY    75  74  96 E3        29.97S
VENICE           N/A    N/A N/A N/A MISG        N/A

STATION/POSITION SKY/WX   TEMP    WIND        PRES    WAVE   SWELL
                          AIR SEA DIR/SP/G            HT/PER HT/PER
                          (F)     (DEG/KT/KT) (MB)    (FT/S) (FT/S)
CEDAR KEY                  76      70/  5/  7 1015.7F
28.5N   84.5W              81 84  130/  6/  8 1014.7F   1/ 6   2/ 6
27.3N   84.3W                 85                N/A     2/ 4
CLEARWATER BEACH NOT AVBL
MIDDLE TAMPA BAY           78     140/  6/  7 1015.3S
VENICE                     77 85   90/  5/  6 1015.0F

$$
FLZ066-069-070-075>078-162-262-165-265-220900-
SOUTHWEST FLORIDA AND KEYS

CITY           SKY/WX    TMP DP  RH WIND       PRES   REMARKS
PUNTA GORDA    MOCLDY    76  73  91 MISG      30.00S
FT MYERS       CLOUDY    74  74 100 CALM      29.97F
SOUTHWEST INTL CLOUDY    74  61  63 CALM      29.97F
NAPLES         CLOUDY    77  75  93 E5        29.97F
MARCO ISLAND   MOSUNNY   75  73  94 CALM      29.98S
MARATHON       PTCLDY    83  77  82 SE5       29.96F
KEY WEST NAS   MOCLDY    83  75  77 SE8       29.95F THUNDER
KEY WEST INTL  PTCLDY    84  75  74 SE8       29.96F

STATION/POSITION SKY/WX   TEMP    WIND        PRES    WAVE   SWELL
                          AIR SEA DIR/SP/G            HT/PER HT/PER
                          (F)     (DEG/KT/KT) (MB)    (FT/S) (FT/S)
VENICE                     77 85   90/  5/  6 1015.0F
NAPLES                     77 89  120/  5/  7 1015.5S
DRY TORTUGAS               81     120/  9/ 11 1014.5F
NW FL BAY                  84     130/  6/  7 1015.6F
SAND KEY                   84     140/ 12/ 13 1014.4F
SOMBRERO KEY               84     120/ 11/ 12 1015.6F
LONG KEY                   83 85  120/  8/  9 1015.8F
MOLASSES REEF              83 86  120/  6/  6 1015.2F

$$
FLZ067-068-071>074-168-172>174-220900-
SOUTHEAST FLORIDA

CITY           SKY/WX    TMP DP  RH WIND       PRES   REMARKS
W PALM BEACH   PTCLDY    74  73  97 CALM      29.97F
FT LAUDER-EXEC MOCLDY    75  75 100 CALM      29.98S
FT LAUDERDALE  PTCLDY    76  74  93 CALM      29.98S
POMPANO BEACH  PTCLDY    76  73  91 CALM      29.98F
PEMBROKE PINES PTCLDY    76  75  97 CALM      29.99S
OPA LOCKA      PTCLDY    77  73  87 N3        29.98F
MIAMI          CLOUDY    78  73  84 CALM      29.98F
WEST KENDALL   MOCLDY    78  73  84 MISG      29.98F
HOMESTEAD      MOCLDY    77  73  88 N1        29.97F

STATION/POSITION SKY/WX   TEMP    WIND        PRES    WAVE   SWELL
                          AIR SEA DIR/SP/G            HT/PER HT/PER
                          (F)     (DEG/KT/KT) (MB)    (FT/S) (FT/S)
PORT EVERGLADES            79     340/  2/  4 1015.2
VIRGINIA KEY               80 85   20/  2/  4   N/A
LAKE WORTH                 77 85  210/  2/  3 1014.8F
FOWEY ROCKS                82 85  100/  6/  6 1015.5F
SETTLEMENT POINT           81      CALM  /  2 1015.9F

$$



USA.gov is the U.S. government's official web portal to all federal, state and local government web resources and services.